EW2821 Weather Reports


Display with metric or nautical units.
time (UTC)temp
F
wind
direction
speed
MPH
gust
MPH
rain 1hr
in
rain 24hr
in
rain mn
in
humidity
%
barometer
mb
20260905094533 69 140 3.0 18.0 0.00 0.00 0.00 89 1016.1
20260905093033 69 132 5.0 12.0 0.00 0.00 0.00 87 1016.2
20260905091534 70 307 6.0 17.0 0.00 0.00 0.00 88 1016.2
20260905090027 70 10 10.0 27.0 0.00 0.00 0.00 96 1015.9
20260905084524 70 172 0.0 0.0 0.00 0.00 0.00 97 1014.6
20260905083023 69 172 0.0 0.0 0.00 0.00 0.00 97 1014.4
20260905081522 69 172 0.0 0.0 0.00 0.00 0.00 97 1014.2
20260905080022 69 172 0.0 0.0 0.00 0.00 0.00 97 1013.9
20260905074524 69 172 0.0 0.0 0.00 0.00 0.00 97 1013.9
20260905073021 70 172 0.0 0.0 0.00 0.00 0.00 97 1013.7
20260905071520 69 172 0.0 0.0 0.00 0.00 0.00 97 1013.3
20260905070019 69 172 0.0 0.0 0.00 0.00 0.00 96 1013.1
20260905064522 70 172 0.0 0.0 0.00 0.00 0.00 96 1013.1
20260905063018 70 172 0.0 0.0 0.00 0.00 0.00 96 1013.4
20260905061528 69 172 0.0 0.0 0.00 0.00 0.00 96 1013.7
20260905060011 70 172 0.0 0.0 0.00 0.00 0.00 96 1014.0
20260905054510 70 172 0.0 0.0 0.00 0.00 0.00 96 1014.2
20260905053008 70 172 0.0 0.0 0.00 0.00 0.00 96 1014.3
20260905051516 70 172 0.0 0.0 0.00 0.00 0.00 96 1014.5
20260905050006 70 183 0.0 0.0 0.00 0.00 0.00 96 1014.5
20260905044504 70 185 0.0 0.0 0.00 0.00 0.00 96 1014.7
20260905043002 70 188 0.0 0.0 0.00 0.00 0.00 96 1014.7
20260905041501 70 188 0.0 0.0 0.00 0.00 0.00 96 1014.8
20260905040059 70 188 0.0 0.0 0.00 0.00 0.00 96 1014.7
20260905034614 71 188 0.0 0.0 0.00 0.00 0.00 96 1014.8
20260905033111 71 188 0.0 0.0 0.00 0.00 0.00 96 1014.9
20260905031601 71 188 0.0 0.0 0.00 0.00 0.00 95 1014.9
20260905030059 71 188 0.0 0.0 0.00 0.00 0.00 95 1014.9
20260905024556 71 188 0.0 0.0 0.00 0.00 0.00 95 1014.8
20260905023056 72 188 0.0 0.0 0.00 0.00 0.00 95 1014.8
20260905021556 72 188 0.0 0.0 0.00 0.00 0.00 95 1014.9
20260905020055 72 188 0.0 0.0 0.00 0.00 0.00 94 1014.8
20260905014555 72 188 0.0 0.0 0.00 0.00 0.00 94 1014.6
20260905013115 73 188 0.0 0.0 0.00 0.00 0.00 93 1014.5
20260905011557 73 188 0.0 1.0 0.00 0.00 0.00 93 1014.4
20260905010059 74 80 0.0 2.0 0.00 0.00 0.00 92 1014.5
20260905004633 75 195 0.0 0.0 0.00 0.00 0.00 90 1014.3
20260905003052 76 195 0.0 0.0 0.00 0.00 0.00 90 1014.4
20260905001559 77 195 0.0 3.0 0.00 0.00 0.00 88 1014.3
20260905000053 78 195 0.0 4.0 0.00 0.00 0.00 85 1014.3
20260904234550 80 197 1.0 5.0 0.00 0.00 0.00 83 1014.3
20260904233052 81 183 3.0 7.0 0.00 0.00 0.00 79 1014.6
20260904231549 83 178 3.0 6.0 0.00 0.00 0.00 78 1014.5
20260904230049 83 178 4.0 6.0 0.00 0.00 0.00 81 1014.5
20260904224549 83 171 3.0 6.0 0.00 0.00 0.00 81 1014.6
20260904223050 83 176 1.0 4.0 0.00 0.00 0.00 81 1014.7
20260904221551 82 177 4.0 7.0 0.00 0.00 0.00 80 1014.6
20260904220049 82 178 2.0 6.0 0.00 0.00 0.00 80 1014.7
20260904214557 81 191 5.0 8.0 0.00 0.00 0.00 83 1014.8
20260904213046 80 183 7.0 11.0 0.00 0.00 0.00 84 1014.4
20260904211546 81 181 8.0 18.0 0.00 0.00 0.00 80 1014.2
20260904210043 82 153 6.0 13.0 0.00 0.00 0.00 78 1014.7
20260904204542 81 123 6.0 12.0 0.00 0.00 0.00 80 1014.9
20260904203040 80 129 8.0 11.0 0.00 0.00 0.00 80 1015.0
20260904201539 80 136 4.0 7.0 0.00 0.00 0.00 86 1015.7
20260904200039 79 145 4.0 7.0 0.00 0.00 0.00 82 1015.7
20260904194538 80 91 4.0 18.0 0.00 0.00 0.00 83 1015.3
20260904193037 85 47 4.0 15.0 0.00 0.00 0.00 74 1015.3
20260904191536 91 255 2.0 6.0 0.00 0.00 0.00 66 1015.2
20260904190035 89 203 4.0 6.0 0.00 0.00 0.00 68 1015.5
20260904184536 86 211 5.0 11.0 0.00 0.00 0.00 76 1015.7
20260904183034 89 264 4.0 11.0 0.00 0.00 0.00 65 1015.8
20260904181537 91 297 6.0 11.0 0.00 0.00 0.00 63 1015.8
20260904180046 91 270 5.0 12.0 0.00 0.00 0.00 60 1016.2
20260904174540 91 277 8.0 11.0 0.00 0.00 0.00 62 1016.5
20260904173037 91 266 3.0 13.0 0.00 0.00 0.00 62 1016.5
20260904171600 91 310 6.0 11.0 0.00 0.00 0.00 62 1016.6
20260904170024 90 276 6.0 10.0 0.00 0.00 0.00 62 1016.9
20260904164521 90 308 5.0 11.0 0.00 0.00 0.00 65 1017.0
20260904163019 90 326 7.0 12.0 0.00 0.00 0.00 66 1017.0
20260904161515 89 297 6.0 12.0 0.00 0.00 0.00 66 1017.0
20260904160016 89 258 7.0 14.0 0.00 0.00 0.00 67 1017.1
20260904154524 88 289 7.0 11.0 0.00 0.00 0.00 69 1017.0
20260904153006 88 283 5.0 11.0 0.00 0.00 0.00 71 1016.9
20260904151600 87 303 6.0 10.0 0.00 0.00 0.00 70 1016.9
20260904150058 86 244 6.0 10.0 0.00 0.00 0.00 74 1016.9
20260904144552 85 271 5.0 8.0 0.00 0.00 0.00 74 1016.8
20260904143047 84 291 5.0 8.0 0.00 0.00 0.00 78 1016.8
20260904141542 83 266 4.0 8.0 0.00 0.00 0.00 79 1016.7
20260904140040 81 259 5.0 10.0 0.00 0.00 0.00 82 1016.7
20260904134542 80 270 2.0 7.0 0.00 0.00 0.00 87 1016.5
20260904133041 77 246 2.0 4.0 0.00 0.00 0.00 91 1016.7
20260904131525 75 173 0.0 2.0 0.00 0.00 0.00 95 1016.7
20260904130022 74 106 0.0 0.0 0.00 0.00 0.00 97 1016.8
20260904124518 73 106 0.0 0.0 0.00 0.00 0.00 97 1016.9
20260904123016 72 106 0.0 0.0 0.00 0.00 0.00 97 1016.6
20260904121512 71 106 0.0 0.0 0.00 0.00 0.00 97 1016.6
20260904120009 70 106 0.0 2.0 0.00 0.00 0.00 97 1016.3
20260904114507 69 106 0.0 0.0 0.00 0.00 0.00 97 1016.1
20260904113008 69 106 0.0 0.0 0.00 0.00 0.00 97 1016.0
20260904111507 69 106 0.0 0.0 0.00 0.00 0.00 97 1015.6
20260904110007 69 106 0.0 0.0 0.00 0.00 0.00 97 1015.5
20260904104502 69 106 0.0 0.0 0.00 0.00 0.00 97 1015.4
20260904103002 69 106 0.0 0.0 0.00 0.00 0.00 96 1015.3
20260904101501 69 106 0.0 0.0 0.00 0.00 0.00 97 1015.2
20260904100001 69 106 0.0 0.0 0.00 0.00 0.00 96 1015.3